Terminal Aerodrome Forecast
Issued by NWS Lubbock, TX

Home | Current Version | Previous Version | Text Only | Print | Product List | Glossary On
Versions: 1 2 3 4 5 6 7 8 9 10 11 12 13
000
FTUS44 KLUB 242300
TAFLBB
TAF
KLBB 242320Z 2500/2524 17006KT P6SM SCT250
     FM251400 20020G30KT P6SM FEW300=

USA.gov is the U.S. government's official web portal to all federal, state and local government web resources and services.